TimeMDT,TemperatureF,Dew PointF,Humidity,Sea Level PressureIn,VisibilityMPH,Wind Direction,Wind SpeedMPH,Gust SpeedMPH,PrecipitationIn,Events,Conditions,WindDirDegrees,DateUTC
12:12 AM,14.0,5.0,67,29.83,10.0,SSW,8.1,-,N/A,,Clear,210,2013-03-22 06:12:00
12:32 AM,14.0,3.2,62,29.82,10.0,SW,11.5,18.4,N/A,,Clear,230,2013-03-22 06:32:00
12:52 AM,14.0,3.2,62,29.81,10.0,SW,8.1,-,N/A,,Clear,220,2013-03-22 06:52:00
1:12 AM,14.0,3.2,62,29.81,10.0,SW,11.5,18.4,N/A,,Clear,220,2013-03-22 07:12:00
1:32 AM,14.0,3.2,62,29.80,10.0,SW,10.4,18.4,N/A,,Clear,220,2013-03-22 07:32:00
1:52 AM,14.0,1.4,57,29.80,10.0,SSW,9.2,17.3,N/A,,Clear,210,2013-03-22 07:52:00
2:12 AM,14.0,1.4,57,29.80,10.0,SSW,10.4,122.0,N/A,,Clear,210,2013-03-22 08:12:00
2:32 AM,14.0,-0.4,53,29.79,10.0,SW,13.8,124.3,N/A,,Clear,220,2013-03-22 08:32:00
2:52 AM,14.0,-0.4,53,29.79,10.0,SSW,10.4,16.1,N/A,,Clear,210,2013-03-22 08:52:00
3:12 AM,14.0,1.4,57,29.78,4.0,SW,6.9,-,N/A,Snow,Light Snow,230,2013-03-22 09:12:00
3:32 AM,14.0,-0.4,53,29.76,7.0,South,16.1,23.0,N/A,,Clear,190,2013-03-22 09:32:00
3:52 AM,14.0,-0.4,53,29.76,10.0,SSW,9.2,18.4,N/A,,Clear,210,2013-03-22 09:52:00
4:12 AM,14.0,-0.4,53,29.75,10.0,SSW,6.9,18.4,N/A,,Clear,210,2013-03-22 10:12:00
4:32 AM,14.0,-2.2,49,29.75,10.0,SW,12.7,20.7,N/A,,Scattered Clouds,220,2013-03-22 10:32:00
4:52 AM,14.0,-4.0,45,29.74,2.5,SSW,19.6,26.5,N/A,Snow,Light Snow,210,2013-03-22 10:52:00
5:12 AM,14.0,-4.0,45,29.75,5.0,SW,16.1,27.6,N/A,,Haze,230,2013-03-22 11:12:00
5:52 AM,14.0,1.4,57,29.74,7.0,SW,16.1,-,N/A,,Overcast,220,2013-03-22 11:52:00
6:12 AM,14.0,-4.0,45,29.74,7.0,SW,16.1,26.5,N/A,,Overcast,230,2013-03-22 12:12:00
6:21 AM,14.0,-4.0,45,29.74,5.0,SW,16.1,26.5,N/A,,Haze,230,2013-03-22 12:21:00
6:52 AM,14.0,-4.0,45,29.73,10.0,North,-9999.0,-,N/A,,Overcast,0,2013-03-22 12:52:00
7:12 AM,14.0,-4.0,45,29.73,10.0,WSW,18.4,-,N/A,,Overcast,240,2013-03-22 13:12:00
7:32 AM,14.0,-5.8,41,29.73,10.0,North,-9999.0,-,N/A,,Scattered Clouds,0,2013-03-22 13:32:00
7:52 AM,14.0,-5.8,41,29.73,7.0,SW,15.0,-,N/A,,Clear,220,2013-03-22 13:52:00
8:12 AM,14.0,-5.8,41,29.72,5.0,SW,20.7,26.5,N/A,,Haze,230,2013-03-22 14:12:00
8:32 AM,14.0,-5.8,41,29.72,4.0,North,-9999.0,-,N/A,,Haze,0,2013-03-22 14:32:00
8:52 AM,15.8,-5.8,38,29.72,2.5,North,-9999.0,-,N/A,,Haze,0,2013-03-22 14:52:00
9:12 AM,15.8,-4.0,41,29.71,2.0,North,-9999.0,-,N/A,,Haze,0,2013-03-22 15:12:00
9:32 AM,17.6,-2.2,42,29.71,4.0,South,15.0,-,N/A,,Haze,190,2013-03-22 15:32:00
9:52 AM,17.6,-2.2,42,29.71,10.0,SSW,10.4,119.7,N/A,,Clear,200,2013-03-22 15:52:00
10:12 AM,17.6,-2.2,42,29.71,10.0,SSW,10.4,122.0,N/A,,Clear,210,2013-03-22 16:12:00
10:32 AM,19.4,-0.4,42,29.71,10.0,SW,6.9,20.7,N/A,,Clear,230,2013-03-22 16:32:00
10:52 AM,19.4,-0.4,42,29.70,10.0,SW,11.5,18.4,N/A,,Scattered Clouds,230,2013-03-22 16:52:00
11:12 AM,19.4,-4.0,36,29.70,5.0,SW,16.1,29.9,N/A,,Haze,220,2013-03-22 17:12:00
11:32 AM,19.4,-0.4,42,29.69,1.0,SW,28.8,38.0,N/A,Snow,Light Snow,230,2013-03-22 17:32:00
11:52 AM,19.4,-2.2,39,29.69,1.5,SW,20.7,41.4,N/A,,Haze,220,2013-03-22 17:52:00
12:12 PM,19.4,-2.2,39,29.69,7.0,SW,19.6,26.5,N/A,,Scattered Clouds,230,2013-03-22 18:12:00
12:32 PM,23.0,-0.4,36,29.68,7.0,SW,17.3,25.3,N/A,,Mostly Cloudy,220,2013-03-22 18:32:00
12:52 PM,23.0,1.4,39,29.67,7.0,WSW,16.1,21.9,N/A,,Overcast,240,2013-03-22 18:52:00
1:12 PM,21.2,-0.4,39,29.66,7.0,WSW,17.3,28.8,N/A,,Overcast,240,2013-03-22 19:12:00
1:32 PM,23.0,1.4,39,29.66,5.0,WSW,16.1,25.3,N/A,,Haze,240,2013-03-22 19:32:00
1:52 PM,23.0,1.4,39,29.65,7.0,SSW,17.3,24.2,N/A,,Overcast,200,2013-03-22 19:52:00
2:12 PM,23.0,1.4,39,29.65,2.5,SW,19.6,31.1,N/A,,Haze,230,2013-03-22 20:12:00
2:32 PM,21.2,1.4,42,29.63,1.5,WSW,23.0,38.0,N/A,Snow,Light Snow,250,2013-03-22 20:32:00
2:52 PM,23.0,3.2,43,29.63,0.5,WSW,21.9,40.3,N/A,Snow,Light Snow,240,2013-03-22 20:52:00
3:12 PM,23.0,1.4,39,29.64,0.8,SW,25.3,42.6,N/A,Snow,Light Snow,230,2013-03-22 21:12:00
3:32 PM,23.0,3.2,43,29.63,1.8,SW,27.6,39.1,N/A,,Haze,230,2013-03-22 21:32:00
3:52 PM,23.0,3.2,43,29.64,10.0,WSW,19.6,27.6,N/A,,Overcast,250,2013-03-22 21:52:00
4:12 PM,21.2,1.4,42,29.64,5.0,SW,20.7,33.4,N/A,,Haze,230,2013-03-22 22:12:00
4:32 PM,19.4,3.2,49,29.64,1.5,WSW,15.0,35.7,N/A,Snow,Light Snow,240,2013-03-22 22:32:00
4:52 PM,19.4,6.8,58,29.65,1.8,WSW,18.4,36.8,N/A,Snow,Light Snow,250,2013-03-22 22:52:00
5:12 PM,19.4,10.4,68,29.65,1.5,West,18.4,24.2,N/A,Snow,Light Snow,260,2013-03-22 23:12:00
5:32 PM,19.4,10.4,68,29.66,7.0,North,-9999.0,-,N/A,Snow,Light Snow,0,2013-03-22 23:32:00
5:52 PM,19.4,12.2,74,29.66,0.8,North,-9999.0,-,N/A,Snow,Light Snow,0,2013-03-22 23:52:00
6:12 PM,19.4,14.0,80,29.66,0.2,West,17.3,21.9,N/A,Snow,Snow,280,2013-03-23 00:12:00
6:32 PM,17.6,12.2,79,29.66,0.8,West,18.4,-,N/A,Snow,Light Snow,270,2013-03-23 00:32:00
6:52 PM,17.6,10.4,73,29.66,1.8,West,6.9,-,N/A,Snow,Light Snow,260,2013-03-23 00:52:00
7:12 PM,17.6,10.4,73,29.66,10.0,North,-9999.0,-,N/A,,Overcast,0,2013-03-23 01:12:00
7:32 PM,17.6,10.4,73,29.67,1.2,WSW,3.5,-,N/A,Snow,Light Snow,250,2013-03-23 01:32:00
7:52 PM,17.6,10.4,73,29.66,0.8,North,-9999.0,-,N/A,Snow,Light Snow,0,2013-03-23 01:52:00
8:12 PM,17.6,10.4,73,29.67,0.5,West,10.4,-,N/A,Snow,Light Snow,260,2013-03-23 02:12:00
8:32 PM,15.8,10.4,79,29.68,0.5,West,17.3,-,N/A,Snow,Snow,280,2013-03-23 02:32:00
8:52 PM,15.8,10.4,79,29.69,0.5,West,10.4,-,N/A,Snow,Snow,270,2013-03-23 02:52:00
9:12 PM,15.8,8.6,73,29.69,0.5,West,11.5,21.9,N/A,Snow,Light Snow,260,2013-03-23 03:12:00
9:32 PM,14.0,8.6,79,29.70,0.5,West,10.4,-,N/A,Snow,Snow,270,2013-03-23 03:32:00
9:52 PM,14.0,8.6,79,29.70,0.5,West,10.4,-,N/A,Snow,Snow,270,2013-03-23 03:52:00
10:12 PM,14.0,8.6,79,29.70,0.5,West,18.4,21.9,N/A,Snow,Snow,280,2013-03-23 04:12:00
10:32 PM,14.0,8.6,79,29.72,0.5,North,-9999.0,-,N/A,Snow,Snow,0,2013-03-23 04:32:00
10:52 PM,14.0,8.6,79,29.72,1.0,WSW,8.1,-,N/A,Snow,Light Snow,250,2013-03-23 04:52:00
11:12 PM,14.0,8.6,79,29.72,1.0,North,-9999.0,-,N/A,Snow,Snow,0,2013-03-23 05:12:00
11:32 PM,14.0,8.6,79,29.71,1.2,SSW,4.6,-,N/A,Snow,Light Snow,210,2013-03-23 05:32:00
11:52 PM,14.0,8.6,79,29.69,0.8,SSE,5.8,-,N/A,Snow,Snow,150,2013-03-23 05:52:00